SVA1040 OEJN-OERK

Flight info

Callsign SVA1040
Flight time 1h 29m
Altitude 39000
Route EGREP T532 ORDEM
Aircraft B789/H-SDE2E3FGHIRWXY/L

Departure

Time 2026-05-07 19:22
Airport King Abdulaziz International Airport (OEJN)

Arrival

Time 2026-05-07 20:52
Airport King Khalid International Airport (OERK)
Time Latitude Longitude Altitude Speed Heading
2026-05-07 18:52 21.66953 39.16788 36 ft 0 kts 21°
2026-05-07 19:10 21.66935 39.16781 34 ft 4 kts 21°
2026-05-07 19:10 21.66902 39.16767 36 ft 4 kts 21°
2026-05-07 19:11 21.66888 39.16761 34 ft 4 kts 32°
2026-05-07 19:11 21.66876 39.16742 32 ft 4 kts 92°
2026-05-07 19:11 21.66880 39.16717 33 ft 1 kts 106°
2026-05-07 19:11 21.66880 39.16716 33 ft 7 kts 106°
2026-05-07 19:14 21.66880 39.16717 33 ft 0 kts 106°
2026-05-07 19:15 21.66879 39.16718 33 ft 1 kts 106°
2026-05-07 19:16 21.66875 39.16732 33 ft 3 kts 106°
2026-05-07 19:16 21.66867 39.16758 35 ft 4 kts 112°
2026-05-07 19:16 21.66852 39.16792 34 ft 6 kts 118°
2026-05-07 19:16 21.66815 39.16847 36 ft 11 kts 129°
2026-05-07 19:17 21.66750 39.16896 36 ft 12 kts 160°
2026-05-07 19:17 21.66664 39.16929 36 ft 15 kts 161°
2026-05-07 19:17 21.66562 39.16971 36 ft 17 kts 160°
2026-05-07 19:17 21.66448 39.17014 36 ft 18 kts 161°
2026-05-07 19:18 21.66332 39.17005 36 ft 16 kts 208°
2026-05-07 19:18 21.66276 39.16908 36 ft 16 kts 251°
2026-05-07 19:18 21.66238 39.16794 36 ft 17 kts 250°
2026-05-07 19:18 21.66197 39.16675 36 ft 17 kts 250°
2026-05-07 19:19 21.66188 39.16648 35 ft 0 kts 250°
2026-05-07 19:19 21.66185 39.16642 35 ft 2 kts 250°
2026-05-07 19:19 21.66175 39.16611 36 ft 7 kts 250°
2026-05-07 19:20 21.66155 39.16553 36 ft 10 kts 250°
2026-05-07 19:20 21.66153 39.16495 36 ft 7 kts 290°
2026-05-07 19:20 21.66172 39.16474 36 ft 4 kts 324°
2026-05-07 19:20 21.66203 39.16458 35 ft 5 kts 339°
2026-05-07 19:21 21.66233 39.16445 36 ft 0 kts 339°
2026-05-07 19:21 21.66292 39.16422 37 ft 27 kts 340°
2026-05-07 19:21 21.66667 39.16273 45 ft 88 kts 340°
2026-05-07 19:22 21.67423 39.15975 43 ft 142 kts 340°
2026-05-07 19:22 21.68399 39.15592 461 ft 144 kts 341°
2026-05-07 19:22 21.69290 39.15215 1101 ft 139 kts 342°
2026-05-07 19:22 21.70314 39.14827 1514 ft 168 kts 341°
2026-05-07 19:23 21.71468 39.14385 2126 ft 189 kts 341°
2026-05-07 19:23 21.72793 39.13865 2652 ft 215 kts 340°
2026-05-07 19:23 21.74278 39.13276 3115 ft 241 kts 339°
2026-05-07 19:23 21.75928 39.12621 3573 ft 262 kts 339°
2026-05-07 19:24 21.77653 39.11941 4296 ft 271 kts 338°
2026-05-07 19:24 21.79477 39.11219 5129 ft 282 kts 338°
2026-05-07 19:24 21.81338 39.10481 6090 ft 287 kts 339°
2026-05-07 19:24 21.83216 39.09741 7116 ft 288 kts 339°
2026-05-07 19:25 21.85103 39.08996 8059 ft 293 kts 338°
2026-05-07 19:25 21.87025 39.08235 9124 ft 292 kts 337°
2026-05-07 19:25 21.88946 39.07474 10098 ft 295 kts 337°
2026-05-07 19:25 21.90880 39.06562 10495 ft 317 kts 331°
2026-05-07 19:26 21.92987 39.05551 10667 ft 346 kts 335°
2026-05-07 19:26 21.95253 39.04530 11269 ft 354 kts 334°
2026-05-07 19:26 21.97521 39.03461 12078 ft 358 kts 333°
2026-05-07 19:26 21.99810 39.02344 12847 ft 364 kts 333°
2026-05-07 19:27 22.02132 39.01227 13669 ft 366 kts 333°
2026-05-07 19:27 22.04474 39.00114 14355 ft 371 kts 333°
2026-05-07 19:27 22.06846 38.98982 15053 ft 375 kts 333°
2026-05-07 19:27 22.09249 38.97830 15736 ft 380 kts 332°
2026-05-07 19:28 22.11685 38.96694 16389 ft 386 kts 337°
2026-05-07 19:28 22.14357 38.96163 16990 ft 397 kts 355°
2026-05-07 19:28 22.17124 38.96492 17625 ft 407 kts 13°
2026-05-07 19:28 22.19745 38.97722 18209 ft 416 kts 32°
2026-05-07 19:29 22.22009 38.99685 18682 ft 422 kts 40°
2026-05-07 19:29 22.24209 39.01803 19213 ft 425 kts 41°
2026-05-07 19:29 22.26399 39.03970 19729 ft 430 kts 41°
2026-05-07 19:29 22.28538 39.06259 20207 ft 435 kts 51°
2026-05-07 19:30 22.30131 39.09041 20716 ft 439 kts 66°
2026-05-07 19:30 22.31075 39.12176 21151 ft 442 kts 77°
2026-05-07 19:30 22.31803 39.15414 21638 ft 444 kts 78°
2026-05-07 19:30 22.32498 39.18677 22085 ft 448 kts 78°
2026-05-07 19:31 22.33191 39.21931 22519 ft 452 kts 78°
2026-05-07 19:31 22.33929 39.25293 22961 ft 456 kts 77°
2026-05-07 19:31 22.34665 39.28634 23375 ft 460 kts 78°
2026-05-07 19:31 22.35386 39.31960 23742 ft 463 kts 78°
2026-05-07 19:32 22.36125 39.35392 24139 ft 464 kts 78°
2026-05-07 19:32 22.36854 39.38756 24475 ft 467 kts 78°
2026-05-07 19:32 22.37599 39.42183 24848 ft 470 kts 78°
2026-05-07 19:32 22.38344 39.45629 25183 ft 473 kts 78°
2026-05-07 19:33 22.39079 39.49024 26157 ft 443 kts 79°
2026-05-07 19:33 22.39765 39.52185 27311 ft 433 kts 79°
2026-05-07 19:33 22.40455 39.55409 27299 ft 448 kts 79°
2026-05-07 19:33 22.41169 39.58742 27307 ft 463 kts 79°
2026-05-07 19:34 22.41915 39.62176 27327 ft 476 kts 79°
2026-05-07 19:34 22.42680 39.65702 27359 ft 488 kts 79°
2026-05-07 19:34 22.43453 39.69301 27608 ft 493 kts 79°
2026-05-07 19:34 22.44229 39.72913 27979 ft 495 kts 79°
2026-05-07 19:35 22.45012 39.76553 28331 ft 498 kts 79°
2026-05-07 19:35 22.45975 39.80168 28652 ft 504 kts 69°
2026-05-07 19:35 22.46991 39.82487 28851 ft 508 kts 60°
2026-05-07 19:35 22.49775 39.86551 29219 ft 511 kts 44°
2026-05-07 19:36 22.52397 39.89154 29437 ft 514 kts 40°
2026-05-07 19:36 22.55091 39.91717 29775 ft 517 kts 40°
2026-05-07 19:36 22.57807 39.94285 30118 ft 520 kts 40°
2026-05-07 19:36 22.60529 39.96886 30365 ft 524 kts 40°
2026-05-07 19:37 22.63260 39.99513 30626 ft 527 kts 40°
2026-05-07 19:37 22.66010 40.02145 30876 ft 530 kts 40°
2026-05-07 19:37 22.68793 40.04799 31092 ft 535 kts 40°
2026-05-07 19:37 22.71590 40.07474 31367 ft 538 kts 40°
2026-05-07 19:38 22.74407 40.10178 31604 ft 542 kts 40°
2026-05-07 19:38 22.77234 40.12891 31860 ft 546 kts 40°
2026-05-07 19:38 22.80089 40.15627 32109 ft 549 kts 40°
2026-05-07 19:38 22.82959 40.18380 32344 ft 552 kts 40°
2026-05-07 19:39 22.85842 40.21149 32585 ft 556 kts 40°
2026-05-07 19:39 22.88741 40.23937 32799 ft 559 kts 40°
2026-05-07 19:39 22.91663 40.26745 33002 ft 564 kts 40°
2026-05-07 19:39 22.94607 40.29576 33225 ft 567 kts 40°
2026-05-07 19:40 22.97561 40.32420 33438 ft 570 kts 40°
2026-05-07 19:40 23.00531 40.35281 33661 ft 573 kts 40°
2026-05-07 19:40 23.03520 40.38162 33859 ft 576 kts 40°
2026-05-07 19:40 23.06521 40.41056 34097 ft 578 kts 40°
2026-05-07 19:41 23.09522 40.43952 34382 ft 578 kts 40°
2026-05-07 19:41 23.12536 40.46863 34598 ft 580 kts 40°
2026-05-07 19:41 23.15543 40.49769 34936 ft 578 kts 41°
2026-05-07 19:41 23.18544 40.52669 35274 ft 577 kts 41°
2026-05-07 19:42 23.21542 40.55570 35539 ft 577 kts 41°
2026-05-07 19:42 23.24513 40.58504 35803 ft 577 kts 46°
2026-05-07 19:42 23.27072 40.61843 36071 ft 575 kts 58°
2026-05-07 19:42 23.28457 40.64283 36225 ft 573 kts 66°
2026-05-07 19:43 23.30544 40.69585 36492 ft 569 kts 73°
2026-05-07 19:43 23.31953 40.73604 36774 ft 569 kts 74°
2026-05-07 19:43 23.33335 40.77624 37065 ft 568 kts 74°
2026-05-07 19:43 23.34725 40.81652 37359 ft 568 kts 74°
2026-05-07 19:44 23.36127 40.85668 37625 ft 567 kts 74°
2026-05-07 19:44 23.37527 40.89687 37903 ft 567 kts 74°
2026-05-07 19:44 23.38912 40.93697 38129 ft 568 kts 74°
2026-05-07 19:44 23.40302 40.97731 38343 ft 568 kts 74°
2026-05-07 19:45 23.41693 41.01749 38636 ft 568 kts 74°
2026-05-07 19:45 23.43087 41.05772 38922 ft 567 kts 74°
2026-05-07 19:45 23.45862 41.13836 39010 ft 570 kts 74°
2026-05-07 19:46 23.48643 41.21904 39026 ft 568 kts 74°
2026-05-07 19:46 23.51411 41.29966 39018 ft 568 kts 74°
2026-05-07 19:47 23.54170 41.38011 39026 ft 567 kts 74°
2026-05-07 19:47 23.56927 41.46069 39025 ft 566 kts 74°
2026-05-07 19:48 23.59672 41.54106 39026 ft 565 kts 74°
2026-05-07 19:48 23.62391 41.62079 39025 ft 563 kts 74°
2026-05-07 19:49 23.65117 41.70095 39022 ft 565 kts 74°
2026-05-07 19:49 23.67786 41.78174 39034 ft 565 kts 76°
2026-05-07 19:50 23.70406 41.86264 39031 ft 564 kts 75°
2026-05-07 19:50 23.72956 41.94328 39024 ft 562 kts 76°
2026-05-07 19:51 23.75165 42.01061 39034 ft 562 kts 72°
2026-05-07 19:51 23.77869 42.09006 39030 ft 563 kts 75°
2026-05-07 19:52 23.80621 42.17072 39036 ft 565 kts 73°
2026-05-07 19:52 23.83352 42.25058 39026 ft 562 kts 74°
2026-05-07 19:53 23.86061 42.33056 39027 ft 561 kts 73°
2026-05-07 19:53 23.88780 42.41037 39024 ft 561 kts 74°
2026-05-07 19:54 23.91479 42.49025 39037 ft 560 kts 74°
2026-05-07 19:54 23.94201 42.57064 39045 ft 567 kts 74°
2026-05-07 19:55 23.96919 42.65117 39037 ft 563 kts 73°
2026-05-07 19:55 23.99617 42.73130 39041 ft 561 kts 73°
2026-05-07 19:56 24.02312 42.81147 39051 ft 562 kts 74°
2026-05-07 19:56 24.05004 42.89170 39049 ft 562 kts 74°
2026-05-07 19:57 24.07655 42.97217 39050 ft 561 kts 75°
2026-05-07 19:57 24.10298 43.05256 39040 ft 562 kts 74°
2026-05-07 19:58 24.12944 43.13302 39050 ft 563 kts 75°
2026-05-07 19:58 24.15586 43.21376 39062 ft 563 kts 74°
2026-05-07 19:59 24.18227 43.29440 39054 ft 563 kts 74°
2026-05-07 19:59 24.20832 43.37427 39060 ft 563 kts 74°
2026-05-07 20:00 24.23495 43.45599 39086 ft 562 kts 74°
2026-05-07 20:00 24.26107 43.53632 39074 ft 560 kts 74°
2026-05-07 20:01 24.28716 43.61679 39075 ft 559 kts 74°
2026-05-07 20:01 24.31314 43.69699 39065 ft 558 kts 74°
2026-05-07 20:02 24.33905 43.77721 39068 ft 559 kts 74°
2026-05-07 20:02 24.36504 43.85781 39081 ft 563 kts 74°
2026-05-07 20:03 24.39114 43.93889 39085 ft 564 kts 74°
2026-05-07 20:03 24.41716 44.01994 39092 ft 563 kts 74°
2026-05-07 20:04 24.44316 44.10111 39097 ft 564 kts 75°
2026-05-07 20:04 24.46043 44.18443 39113 ft 559 kts 84°
2026-05-07 20:05 24.47489 44.26810 39093 ft 557 kts 84°
2026-05-07 20:05 24.48216 44.30963 38379 ft 556 kts 84°
2026-05-07 20:05 24.48941 44.35148 37487 ft 558 kts 84°
2026-05-07 20:06 24.49661 44.39315 36992 ft 552 kts 84°
2026-05-07 20:06 24.50373 44.43416 36465 ft 545 kts 84°
2026-05-07 20:06 24.51076 44.47489 36026 ft 538 kts 84°
2026-05-07 20:06 24.51766 44.51503 35499 ft 533 kts 84°
2026-05-07 20:07 24.52450 44.55487 35031 ft 528 kts 84°
2026-05-07 20:07 24.53127 44.59421 34552 ft 523 kts 84°
2026-05-07 20:07 24.53799 44.63331 34067 ft 517 kts 84°
2026-05-07 20:07 24.54459 44.67186 33557 ft 512 kts 84°
2026-05-07 20:08 24.55111 44.71010 33024 ft 506 kts 84°
2026-05-07 20:08 24.55755 44.74782 32546 ft 500 kts 84°
2026-05-07 20:08 24.56392 44.78518 32031 ft 495 kts 83°
2026-05-07 20:08 24.57022 44.82215 31539 ft 490 kts 83°
2026-05-07 20:09 24.57643 44.85874 31054 ft 484 kts 83°
2026-05-07 20:09 24.58256 44.89488 30581 ft 479 kts 83°
2026-05-07 20:09 24.58861 44.93061 30107 ft 473 kts 83°
2026-05-07 20:10 24.59753 44.98333 29234 ft 467 kts 83°
2026-05-07 20:10 24.60052 45.00104 28937 ft 465 kts 82°
2026-05-07 20:11 24.60636 45.03575 28436 ft 459 kts 82°
2026-05-07 20:11 24.61212 45.07004 27872 ft 455 kts 82°
2026-05-07 20:11 24.61782 45.10402 27342 ft 450 kts 82°
2026-05-07 20:11 24.62349 45.13768 26787 ft 446 kts 82°
2026-05-07 20:12 24.62903 45.17080 26356 ft 438 kts 82°
2026-05-07 20:12 24.63453 45.20371 25821 ft 435 kts 82°
2026-05-07 20:12 24.63994 45.23614 25326 ft 430 kts 82°
2026-05-07 20:12 24.64531 45.26834 24808 ft 426 kts 82°
2026-05-07 20:13 24.65063 45.30025 24315 ft 422 kts 82°
2026-05-07 20:13 24.65588 45.33183 23805 ft 418 kts 82°
2026-05-07 20:13 24.66109 45.36317 23265 ft 415 kts 82°
2026-05-07 20:13 24.66624 45.39418 22699 ft 410 kts 82°
2026-05-07 20:14 24.67132 45.42484 22129 ft 406 kts 82°
2026-05-07 20:14 24.67634 45.45522 21598 ft 402 kts 82°
2026-05-07 20:14 24.68131 45.48530 21047 ft 397 kts 82°
2026-05-07 20:14 24.68622 45.51504 20525 ft 393 kts 82°
2026-05-07 20:15 24.69107 45.54448 19980 ft 389 kts 82°
2026-05-07 20:15 24.69588 45.57362 19467 ft 385 kts 82°
2026-05-07 20:15 24.70061 45.60240 19058 ft 378 kts 82°
2026-05-07 20:15 24.70517 45.63006 19047 ft 358 kts 82°
2026-05-07 20:16 24.70955 45.65679 18625 ft 354 kts 82°
2026-05-07 20:16 24.71307 45.68340 18135 ft 348 kts 91°
2026-05-07 20:16 24.71355 45.70986 17584 ft 345 kts 91°
2026-05-07 20:16 24.71467 45.73608 17094 ft 342 kts 90°
2026-05-07 20:17 24.71570 45.76206 16585 ft 338 kts 91°
2026-05-07 20:17 24.71646 45.78775 16099 ft 335 kts 92°
2026-05-07 20:17 24.71719 45.81324 15618 ft 332 kts 91°
2026-05-07 20:17 24.71801 45.83850 15141 ft 329 kts 91°
2026-05-07 20:18 24.71884 45.86345 14690 ft 325 kts 92°
2026-05-07 20:18 24.71963 45.88820 14232 ft 322 kts 92°
2026-05-07 20:18 24.72038 45.91242 13780 ft 319 kts 92°
2026-05-07 20:18 24.72113 45.93670 13241 ft 316 kts 92°
2026-05-07 20:19 24.72187 45.96076 12719 ft 314 kts 92°
2026-05-07 20:19 24.72263 45.98509 12193 ft 312 kts 92°
2026-05-07 20:19 24.72336 46.00822 12017 ft 302 kts 91°
2026-05-07 20:19 24.72406 46.03055 12040 ft 284 kts 91°
2026-05-07 20:20 24.72471 46.05199 12131 ft 278 kts 91°
2026-05-07 20:20 24.72533 46.07320 12165 ft 278 kts 91°
2026-05-07 20:20 24.72597 46.09444 12166 ft 278 kts 91°
2026-05-07 20:20 24.72661 46.11565 12168 ft 278 kts 91°
2026-05-07 20:21 24.72725 46.13686 12173 ft 277 kts 91°
2026-05-07 20:21 24.72792 46.15803 12169 ft 277 kts 91°
2026-05-07 20:21 24.72885 46.17923 12174 ft 277 kts 90°
2026-05-07 20:21 24.72979 46.20037 12173 ft 277 kts 90°
2026-05-07 20:22 24.73066 46.22150 12175 ft 276 kts 91°
2026-05-07 20:22 24.73138 46.24256 12172 ft 275 kts 94°
2026-05-07 20:22 24.73115 46.26365 12184 ft 276 kts 91°
2026-05-07 20:22 24.73228 46.28476 12174 ft 277 kts 90°
2026-05-07 20:23 24.73306 46.30595 12175 ft 277 kts 92°
2026-05-07 20:23 24.73339 46.32709 12178 ft 276 kts 92°
2026-05-07 20:23 24.73375 46.34822 12175 ft 276 kts 92°
2026-05-07 20:23 24.73422 46.36937 12168 ft 277 kts 92°
2026-05-07 20:24 24.73478 46.39054 12148 ft 275 kts 90°
2026-05-07 20:24 24.73996 46.41068 12150 ft 281 kts 63°
2026-05-07 20:24 24.74963 46.42959 12151 ft 283 kts 63°
2026-05-07 20:24 24.75955 46.44814 12064 ft 278 kts 62°
2026-05-07 20:25 24.76945 46.46660 11535 ft 282 kts 62°
2026-05-07 20:25 24.77926 46.48519 11153 ft 279 kts 62°
2026-05-07 20:25 24.78894 46.50364 10754 ft 278 kts 62°
2026-05-07 20:25 24.79863 46.52202 10348 ft 277 kts 62°
2026-05-07 20:26 24.80824 46.54029 9951 ft 275 kts 62°
2026-05-07 20:26 24.81776 46.55844 9544 ft 273 kts 62°
2026-05-07 20:26 24.82722 46.57642 9181 ft 269 kts 63°
2026-05-07 20:26 24.83571 46.59434 8807 ft 261 kts 75°
2026-05-07 20:27 24.83711 46.61380 8378 ft 253 kts 101°
2026-05-07 20:27 24.83101 46.63142 7984 ft 245 kts 126°
2026-05-07 20:27 24.81912 46.64425 7575 ft 240 kts 149°
2026-05-07 20:27 24.80474 46.65354 7190 ft 238 kts 150°
2026-05-07 20:28 24.79036 46.66249 6834 ft 237 kts 150°
2026-05-07 20:28 24.77600 46.67143 6467 ft 236 kts 150°
2026-05-07 20:28 24.76216 46.68016 6410 ft 221 kts 150°
2026-05-07 20:28 24.74916 46.68835 6235 ft 214 kts 149°
2026-05-07 20:29 24.73572 46.69683 5904 ft 214 kts 149°
2026-05-07 20:29 24.72334 46.70464 5624 ft 213 kts 149°
2026-05-07 20:29 24.71046 46.71275 5321 ft 213 kts 148°
2026-05-07 20:29 24.69763 46.72084 5032 ft 212 kts 148°
2026-05-07 20:30 24.68486 46.72889 4746 ft 211 kts 147°
2026-05-07 20:30 24.67209 46.73694 4433 ft 212 kts 147°
2026-05-07 20:30 24.65929 46.74500 4100 ft 213 kts 146°
2026-05-07 20:30 24.64637 46.75314 3769 ft 215 kts 146°
2026-05-07 20:31 24.63334 46.76129 3506 ft 213 kts 146°
2026-05-07 20:31 24.62113 46.76888 3517 ft 192 kts 146°
2026-05-07 20:31 24.61352 46.77361 3517 ft 180 kts 145°
2026-05-07 20:31 24.60311 46.78013 3491 ft 166 kts 144°
2026-05-07 20:32 24.59226 46.78707 3784 ft 183 kts 145°
2026-05-07 20:32 24.58098 46.79416 4024 ft 202 kts 146°
2026-05-07 20:32 24.56894 46.80161 3981 ft 193 kts 147°
2026-05-07 20:32 24.55728 46.80885 3986 ft 193 kts 146°
2026-05-07 20:33 24.54570 46.81610 3976 ft 189 kts 147°
2026-05-07 20:33 24.53430 46.82328 3972 ft 190 kts 146°
2026-05-07 20:33 24.52288 46.83051 3974 ft 190 kts 146°
2026-05-07 20:33 24.51144 46.83772 3973 ft 190 kts 146°
2026-05-07 20:34 24.50003 46.84491 3976 ft 190 kts 146°
2026-05-07 20:34 24.48851 46.85218 3973 ft 190 kts 146°
2026-05-07 20:34 24.47700 46.85942 3966 ft 191 kts 146°
2026-05-07 20:34 24.46551 46.86666 3966 ft 190 kts 146°
2026-05-07 20:35 24.45407 46.87386 3962 ft 190 kts 146°
2026-05-07 20:35 24.44266 46.88104 3964 ft 189 kts 146°
2026-05-07 20:35 24.43124 46.88821 3963 ft 189 kts 146°
2026-05-07 20:35 24.41982 46.89538 3963 ft 189 kts 146°
2026-05-07 20:36 24.40838 46.90256 3965 ft 190 kts 146°
2026-05-07 20:36 24.39689 46.90978 3958 ft 190 kts 146°
2026-05-07 20:36 24.38542 46.91697 3958 ft 190 kts 146°
2026-05-07 20:36 24.37396 46.92415 3958 ft 190 kts 146°
2026-05-07 20:37 24.36262 46.93145 3954 ft 188 kts 143°
2026-05-07 20:37 24.35506 46.94253 3938 ft 183 kts 111°
2026-05-07 20:37 24.35360 46.95617 3931 ft 182 kts 83°
2026-05-07 20:37 24.35844 46.96900 3949 ft 184 kts 63°
2026-05-07 20:38 24.36494 46.98120 3951 ft 186 kts 63°
2026-05-07 20:38 24.37141 46.99346 3952 ft 187 kts 63°
2026-05-07 20:38 24.37792 47.00587 3952 ft 186 kts 63°
2026-05-07 20:38 24.38446 47.01804 3947 ft 186 kts 59°
2026-05-07 20:39 24.39492 47.02654 3935 ft 193 kts 25°
2026-05-07 20:39 24.40846 47.02762 3932 ft 202 kts 352°
2026-05-07 20:39 24.42125 47.02106 3946 ft 205 kts 333°
2026-05-07 20:39 24.43359 47.01313 3956 ft 206 kts 333°
2026-05-07 20:40 24.44601 47.00523 3963 ft 206 kts 334°
2026-05-07 20:40 24.45843 46.99744 3964 ft 206 kts 334°
2026-05-07 20:40 24.47089 46.98966 3962 ft 206 kts 334°
2026-05-07 20:40 24.48336 46.98186 3963 ft 205 kts 334°
2026-05-07 20:41 24.49574 46.97414 3966 ft 205 kts 334°
2026-05-07 20:41 24.50813 46.96639 3961 ft 204 kts 334°
2026-05-07 20:41 24.52045 46.95864 3970 ft 204 kts 334°
2026-05-07 20:41 24.53277 46.95090 3970 ft 204 kts 334°
2026-05-07 20:42 24.54527 46.94306 3971 ft 204 kts 334°
2026-05-07 20:42 24.55763 46.93532 3972 ft 204 kts 334°
2026-05-07 20:42 24.56996 46.92758 3972 ft 204 kts 334°
2026-05-07 20:42 24.58229 46.91983 3973 ft 204 kts 334°
2026-05-07 20:43 24.59461 46.91209 3978 ft 204 kts 334°
2026-05-07 20:43 24.60675 46.90447 3974 ft 200 kts 334°
2026-05-07 20:43 24.61885 46.89687 3974 ft 200 kts 334°
2026-05-07 20:43 24.63022 46.88974 3973 ft 200 kts 334°
2026-05-07 20:44 24.64230 46.88215 3972 ft 200 kts 334°
2026-05-07 20:44 24.65400 46.87476 3962 ft 185 kts 335°
2026-05-07 20:44 24.66465 46.86804 3962 ft 171 kts 335°
2026-05-07 20:44 24.67491 46.86163 3972 ft 168 kts 336°
2026-05-07 20:45 24.68501 46.85529 3973 ft 167 kts 335°
2026-05-07 20:45 24.69507 46.84899 3972 ft 167 kts 335°
2026-05-07 20:45 24.70562 46.84401 3976 ft 161 kts 349°
2026-05-07 20:45 24.71657 46.84030 3980 ft 167 kts 347°
2026-05-07 20:46 24.72757 46.83627 3983 ft 165 kts 347°
2026-05-07 20:46 24.73853 46.83231 3987 ft 166 kts 347°
2026-05-07 20:46 24.74953 46.82837 3997 ft 168 kts 347°
2026-05-07 20:46 24.76070 46.82437 4006 ft 170 kts 347°
2026-05-07 20:47 24.77218 46.82025 4001 ft 171 kts 347°
2026-05-07 20:47 24.78341 46.81622 4006 ft 171 kts 347°
2026-05-07 20:47 24.79480 46.81239 3996 ft 170 kts 352°
2026-05-07 20:47 24.80646 46.80950 3984 ft 175 kts 345°
2026-05-07 20:48 24.81685 46.80319 3990 ft 172 kts 336°
2026-05-07 20:48 24.82756 46.79678 4001 ft 172 kts 336°
2026-05-07 20:48 24.83793 46.79026 4008 ft 171 kts 335°
2026-05-07 20:48 24.84818 46.78374 4008 ft 170 kts 335°
2026-05-07 20:49 24.85845 46.77721 3980 ft 172 kts 336°
2026-05-07 20:49 24.86883 46.77059 3781 ft 168 kts 336°
2026-05-07 20:49 24.87868 46.76431 3563 ft 161 kts 336°
2026-05-07 20:49 24.88840 46.75822 3379 ft 158 kts 337°
2026-05-07 20:50 24.89769 46.75229 3183 ft 152 kts 337°
2026-05-07 20:50 24.90675 46.74653 2987 ft 151 kts 337°
2026-05-07 20:50 24.91600 46.74069 2746 ft 151 kts 336°
2026-05-07 20:50 24.92498 46.73511 2532 ft 148 kts 332°
2026-05-07 20:51 24.93382 46.72940 2335 ft 148 kts 332°
2026-05-07 20:51 24.94270 46.72367 2126 ft 145 kts 332°
2026-05-07 20:51 24.95106 46.71844 2043 ft 124 kts 330°
2026-05-07 20:51 24.95684 46.71467 2045 ft 66 kts 330°
2026-05-07 20:52 24.95933 46.71282 2043 ft 31 kts 307°
2026-05-07 20:52 24.96009 46.71097 2040 ft 24 kts 270°
2026-05-07 20:52 24.95959 46.70955 2043 ft 5 kts 238°
2026-05-07 20:52 24.95958 46.70954 2043 ft 0 kts 238°
2026-05-07 20:53 24.95957 46.70951 2043 ft 1 kts 238°
2026-05-07 20:54 24.95949 46.70937 2038 ft 3 kts 238°
2026-05-07 20:54 24.95935 46.70912 2036 ft 5 kts 239°
2026-05-07 20:54 24.95915 46.70874 2043 ft 8 kts 240°
2026-05-07 20:54 24.95872 46.70796 2037 ft 16 kts 239°
2026-05-07 20:55 24.95857 46.70697 2043 ft 8 kts 299°
2026-05-07 20:55 24.95880 46.70680 2042 ft 6 kts 334°
2026-05-07 20:55 24.95951 46.70638 2040 ft 14 kts 330°
2026-05-07 20:55 24.96037 46.70584 2040 ft 15 kts 330°
2026-05-07 20:56 24.96129 46.70526 2044 ft 15 kts 330°
2026-05-07 20:56 24.96168 46.70492 2037 ft 2 kts 289°
2026-05-07 20:56 24.96167 46.70460 2040 ft 7 kts 265°
2026-05-07 20:56 24.96158 46.70411 2036 ft 7 kts 257°
2026-05-07 20:57 24.96153 46.70387 2043 ft 0 kts 257°
2026-05-07 21:00 24.93131 46.73103 2408 ft 147 kts 332°
2026-05-07 21:00 24.93956 46.72568 2201 ft 148 kts 331°
2026-05-07 21:00 24.94936 46.71946 2044 ft 133 kts 332°
2026-05-07 21:01 24.95167 46.71805 2041 ft 121 kts 329°
2026-05-07 21:01 24.95577 46.71535 2041 ft 80 kts 330°